Race Coverage Navigation

TS # 36 / Greenville, IL  2019

 


TS STATS
TS Distance 48.3 
Total Distance 2116.4 
Miles To Go 924.55 
TS Climbing 2096 
Total Climbing
TS  Elevation
TS  Net Elevation 3337 
Map Filename Open Map 
Directions Filename  
Latitude 38.88 
Longitude -89.39 
Google Map  TimeStation Map 


TS Arrival Data
Arr Ord  #/Name Arrival DT Descending TS Dst Avg This TS Avg Overall
 1 T210 - Bike Wine Team  06/22/2019 1:06 48.3  11.59  13.75 
 2 T205 - Prevent Breast Cancer powered by Endomag  06/22/2019 0:22 48.3  11.93  13.81 
 3 T207 - Team Life Time  06/21/2019 21:04 48.3  10.39  14.11 
 4 T203 - JPsDuo  06/21/2019 19:51 48.3  10.46  14.22 
 5 T409 - Serpentine Golden Girls  06/21/2019 15:10 48.3  11.88  14.71 
 6 T417 - Team4RAAM 2019 powered by TGW Living Logistics  06/21/2019 3:44 48.3  11.28  16 
 7 T200 - AIR RELAX GoPro TEAM BRASIL  06/21/2019 1:46 48.3  14  16.18 
 8 T801 - Mind Over Matter  06/21/2019 1:43 48.3  12.38  16.25 
 9 T806 - Team SuperMarrow  06/21/2019 1:16 48.3  11.69  16.32 
 10 T403 - EKJ Denmark  06/21/2019 0:34 48.3  13  16.36 
 11 608 - Elin Starup  06/20/2019 23:41 48.3  7.71  9.46 
 12 T402 - EA/WFP RAAM Team  06/20/2019 23:39 48.3  13.93  16.48 
 13 T204 - Lucan CRC  06/20/2019 23:18 48.3  12.71  16.5 
 14 T413 - TEAM BRASIL - SKIPPER  06/20/2019 22:29 48.3  13.87  16.65 
 15 T206 - Project Linear Acceleration  06/20/2019 21:46 48.3  13.11  16.71 
 16 T415 - TEAM FIRE VELO 935  06/20/2019 20:01 48.3  15.02  16.99 
 17 T405 - High Rollers  06/20/2019 19:13 48.3  11.93  17.07 
 18 T803 - Team EndoPark  06/20/2019 18:59 48.3  13.29  17.14 
 19 T202 - Integra Medical - BAA Racing  06/20/2019 18:19 48.3  11.5  17.17 
 20 T414 - Brazil Nuts  06/20/2019 17:58 48.3  10.65  17.27 
 21 T412 - Team Aspect  06/20/2019 16:34 48.3  12.33  17.46 
 22 T410 - Soap-Aid  06/20/2019 14:49 48.3  15.09  17.71 
 23 T418 - The Opportunists  06/20/2019 10:57 48.3  14.42  18.33 
 24 161 - Seana Hogan  06/20/2019 10:56 48.3  6.9  10.04 
 25 T406 - Operation Walk Midwest  06/20/2019 9:21 48.3  15.84  18.55 
 26 424 - Team i RON man Veterans supporting Veterans  06/20/2019 8:48 48.3  7.71  10.16 
 27 T808 - Antonia's Friends 2019  06/20/2019 8:37 48.3  14.14  18.73 
 28 T400 - Cantastic4  06/20/2019 7:21 48.3  16.01  18.87 
 29 T408 - Radeln-fuer-Kinder (Cycling-for-Kids)  06/20/2019 5:28 48.3  15.58  19.21 
 30 T804 - Team FSHD Skyland Trail  06/20/2019 5:00 48.3  16.19  19.34 
 31 T416 - Team Rotary Raams Polio  06/20/2019 4:13 48.3  16.28  19.46 
 32 399 - Valerio Zamboni  06/20/2019 3:27 48.3  10.77  10.43 
 33 T802 - Scorchers  06/20/2019 2:37 48.3  19.45  19.76 
 34 T201 - EAT WELL  06/20/2019 0:59 48.3  16.19  19.97 
 35 T407 - Julian Becker   06/20/2019 0:46 48.3  16.56  20.06 
 36 T807 - Team ZOE International  06/20/2019 0:41 48.3  17.35  20.14 
 37 610 - Kabir Rachure  06/20/2019 0:07 48.3  5.34  10.59 
 38 T805 - Team Oceanside  06/19/2019 23:53 48.3  20.7  20.29 
 39 618 - GREGORY ROBINSON  06/19/2019 23:51 48.3  13.35  10.6 
 40 529 - Isa Pulver  06/19/2019 20:49 48.3  10.69  10.76 
 41 T404 - Gentlemen of speed  06/19/2019 18:54 48.3  13.8  21.23 
 42 568 - Alexandra Meixner  06/19/2019 18:22 48.3  9.44  10.89 
 43 604 - Chieko Ozawa  06/19/2019 18:16 48.3  9.82  10.9 
 44 T401 - Data Techniques powered by Networks Centre  06/19/2019 17:42 48.3  28.41  21.48 
 45 411 - Geoff Brunner  06/19/2019 15:27 48.3  11.83  11.09 
 46 559 - Team Martin RAAM 2019 (Martin Bergmeister)  06/19/2019 13:34 48.3  13.42  11.19 
 47 T800 - Backstedt Racing Project 14  06/19/2019 13:30 48.3  16.47  22.51 
 48 442 - Joe Barr  06/19/2019 13:24 48.3  13.29  11.2 
 49 T411 - team alpha - tischlerei groemmer  06/19/2019 13:00 48.3  21  22.6 
 50 510 - John C. Tarlton  06/19/2019 12:56 48.3  12.02  11.23 
 51 611 - Marcelo Soares " MIXIRICA "  06/19/2019 9:56 48.3  10.46  11.4 
 52 603 - Alan Bradley  06/19/2019 8:16 48.3  8.92  11.51 
 53 615 - Philipp Amhof  06/19/2019 7:45 48.3  7.02  11.53 
 54 612 - Markus K. Brandl  06/19/2019 5:51 48.3  12.55  11.66 
 55 623 - Ultra Paka Racing Team (Daniel Polman)  06/18/2019 23:09 48.3  11.78  12.09 
 56 622 - Thomas Odom-Team Kyle Pease Foundation  06/18/2019 23:04 48.3  8.84  12.1 
 57 367 - Daniela Genovesi  06/18/2019 20:05 48.3  12.38  12.31 
 58 416 - Leah Goldstein  06/18/2019 19:51 48.3  12.02  12.32 
 59 617 - SOLO.kiwi (Craig Harper)  06/18/2019 18:31 48.3  12.82  12.43 
 60 329 - Peter Oyler  06/18/2019 18:27 48.3  11.1  12.46 
 61 609 - Jakob Olsen  06/18/2019 1:40 48.3  13.17  13.8 
 62 279 - Marko Baloh  06/17/2019 20:58 48.3  12.28  14.27 
 63 377 - Christoph Strasser  06/17/2019 3:03 48.3  11.36  16.23